Home > Weather > Qikiqtarjuaq > Past weeks

Flag for Canada Past Weather in Qikiqtarjuaq, Nunavut, Canada — Yesterday and Last 2 Weeks

Now
32 °F

Light snow. Ice fog.


Feels Like: 26 °F
Forecast: 32 / 36 °F
Wind: 6 mph from East

Location: Broughton Island Airport

Current Time: Jun 27, 2016 at 7:33:45 AM

Latest Report: Jun 27, 2016 at 7:00 AM


Visibility: 2 mi

Pressure: 29.90 "Hg

Humidity: 100%

Dew Point: 32 °F

Location of QikiqtarjuaqLocation

Past Weather in Qikiqtarjuaq — Graph

°F

Qikiqtarjuaq Temperature Yesterday

Maximum temperature yesterday: 34 °F (at 12:00 AM)
Minimum temperature yesterday: 32 °F (at 3:00 AM)
Average temperature yesterday: 32 °F

High & Low Weather Summary for the Past Weeks

 TemperatureHumidityPressure
High48 °F (Jun 13, 11:00 AM)100% (Jun 15, 2:00 AM)30.25 "Hg (Jun 15, 2:00 AM)
Low27 °F (Jun 18, 3:52 AM)53% (Jun 12, 6:00 PM)29.45 "Hg (Jun 22, 4:00 PM)
Average35 °F91%29.75 "Hg
* Reported Jun 12 6:00 AM — Jun 27 6:00 AM, Qikiqtarjuaq, Weather by CustomWeather, © 2016

Note: Actual official high and low records may vary slightly from our data, if they occured in-between our weather recording intervals... More about our weather records

Advertising

Qikiqtarjuaq Weather History for the Previous 24 Hours

Scroll right to see more
 ConditionsComfort  
Time TempWeatherWind HumidityBarometerVisibility
6:00 AM
Mon, Jun 27
32 °FLight snow. Ice fog.6 mph100%29.90 "Hg1 mi
5:00 AM32 °FLight snow. Low clouds.9 mph100%29.89 "Hg2 mi
4:00 AM32 °FLight snow. Mostly cloudy.15 mph100%29.88 "Hg2 mi
3:49 AM32 °FLight snow. Mostly cloudy.17 mph100%29.88 "Hg2 mi
3:00 AM32 °FLight rain. Overcast.15 mph100%29.87 "Hg9 mi
2:53 AM32 °FLight rain. Overcast.15 mph100%29.87 "Hg9 mi
2:04 AM32 °FLight snow. More clouds than sun.10 mph100%29.86 "Hg5 mi
1:53 AM32 °FLight snow. Low clouds.9 mph100%29.86 "Hg6 mi
1:03 AM32 °FLight rain. More clouds than sun.13 mph100%29.85 "Hg5 mi
1:02 AM32 °FLight rain. More clouds than sun.13 mph100%29.85 "Hg7 mi
12:00 AM32 °FLight rain. Mostly cloudy.12 mph100%29.85 "Hg5 mi
11:00 PM
Sun, Jun 26
32 °FLight snow. Mostly cloudy.13 mph100%29.84 "Hg2 mi
10:55 PM32 °FLight snow. Mostly cloudy.13 mph100%29.84 "Hg2 mi
10:00 PM32 °FLight snow. More clouds than sun.12 mph100%29.84 "Hg4 mi
9:58 PM32 °FLight snow. Cloudy.13 mph100%29.84 "Hg3 mi
9:00 PM32 °FLight snow. Mostly cloudy.13 mph100%29.83 "Hg1 mi
8:00 PM32 °FLight snow. Low clouds.10 mph100%29.82 "Hg2 mi
7:02 PM32 °FLight snow. Low clouds.10 mph100%29.81 "Hg3 mi
6:50 PM32 °FLight snow. Low clouds.9 mph100%29.81 "Hg2 mi
6:00 PM32 °FLight snow. Mostly cloudy.9 mph100%29.80 "Hg3 mi
5:00 PM32 °FLight snow. Low clouds.10 mph100%29.78 "Hg2 mi
4:00 PM32 °FLight snow. Mostly cloudy.9 mph100%29.78 "Hg3 mi
3:53 PM32 °FLight snow. Low clouds.9 mph100%29.77 "Hg3 mi
3:00 PM32 °FLight snow. Low clouds.8 mph100%29.76 "Hg2 mi
2:00 PM32 °FLight snow. Low clouds.8 mph100%29.75 "Hg2 mi
1:00 PM32 °FLight snow. Ice fog.8 mph100%29.73 "Hg2 mi
12:00 PM32 °FLight snow. Ice fog.7 mph100%29.73 "Hg2 mi
11:00 AM32 °FLight snow. Ice fog.7 mph100%29.72 "Hg2 mi
10:00 AM32 °FLight snow. Ice fog.7 mph100%29.71 "Hg1 mi
9:00 AM32 °FLight snow. Dense fog.7 mph100%29.71 "Hg1 mi
8:00 AM32 °FLight snow. Ice fog.6 mph100%29.70 "Hg4 mi
7:00 AM32 °FLight snow. Ice fog.2 mph100%29.68 "Hg3 mi
Weather by CustomWeather, © 2016

See weather overviewHow to use our weather pages